Time,TemperatureF,DewpointF,PressureIn,WindDirection,WindDirectionDegrees,WindSpeedMPH,WindSpeedGustMPH,Humidity,HourlyPrecipIn,Conditions,Clouds,dailyrainin,SoftwareType,DateUTC
2013-02-03 10:33:00,15.0,1.0,-100.00,North,350,0.0,5.0,57,0.00,,,0.00,,2013-02-03 16:33:00,
2013-02-03 10:42:00,15.0,1.0,-100.00,NW,315,1.0,6.0,55,0.00,,,0.00,,2013-02-03 16:42:00,
2013-02-03 10:52:00,13.0,0.0,-100.00,SSE,160,1.0,7.0,53,0.00,,,0.00,,2013-02-03 16:52:00,
2013-02-03 11:02:00,13.0,0.0,-100.00,SSW,205,2.0,5.0,53,0.00,,,0.00,,2013-02-03 17:02:00,
2013-02-03 11:11:00,13.0,0.0,-100.00,NNE,15,1.0,5.0,54,0.00,,,0.00,,2013-02-03 17:11:00,
2013-02-03 11:21:00,13.0,0.0,-100.00,West,280,2.0,7.0,54,0.00,,,0.00,,2013-02-03 17:21:00,
2013-02-03 11:32:00,13.0,0.0,-100.00,SE,145,1.0,6.0,54,0.00,,,0.00,,2013-02-03 17:32:00,
2013-02-03 11:42:00,14.0,1.0,-100.00,SW,230,3.0,6.0,53,0.00,,,0.00,,2013-02-03 17:42:00,
2013-02-03 11:52:00,14.0,0.0,-100.00,WSW,250,1.0,7.0,53,0.00,,,0.00,,2013-02-03 17:52:00,
2013-02-03 12:03:00,14.0,1.0,-100.00,SSE,165,1.0,5.0,53,0.00,,,0.00,,2013-02-03 18:03:00,
2013-02-03 12:11:00,15.0,1.0,-100.00,NNE,20,1.0,7.0,53,0.00,,,0.00,,2013-02-03 18:11:00,
2013-02-03 12:23:00,14.0,0.0,-100.00,South,185,1.0,6.0,53,0.00,,,0.00,,2013-02-03 18:23:00,
2013-02-03 12:32:00,15.0,1.0,-100.00,South,180,2.0,5.0,53,0.00,,,0.00,,2013-02-03 18:32:00,
2013-02-03 12:42:00,15.0,1.0,-100.00,WNW,285,2.0,6.0,52,0.00,,,0.00,,2013-02-03 18:42:00,
2013-02-03 12:51:00,14.0,0.0,-100.00,WSW,255,2.0,6.0,53,0.00,,,0.00,,2013-02-03 18:51:00,
2013-02-03 13:02:00,16.0,1.0,-100.00,NW,315,2.0,6.0,52,0.00,,,0.00,,2013-02-03 19:02:00,
2013-02-03 13:11:00,16.0,1.0,-100.00,WSW,255,1.0,6.0,52,0.00,,,0.00,,2013-02-03 19:11:00,
2013-02-03 13:22:00,15.0,1.0,-100.00,WSW,255,2.0,6.0,52,0.00,,,0.00,,2013-02-03 19:22:00,
2013-02-03 13:32:00,15.0,1.0,-100.00,WSW,240,3.0,9.0,53,0.00,,,0.00,,2013-02-03 19:32:00,
2013-02-03 13:41:00,15.0,1.0,-100.00,SSW,205,1.0,3.0,53,0.00,,,0.00,,2013-02-03 19:41:00,
2013-02-03 13:51:00,14.0,1.0,-100.00,South,185,2.0,7.0,55,0.00,,,0.00,,2013-02-03 19:51:00,
2013-02-03 14:01:00,15.0,1.0,-100.00,West,265,3.0,7.0,55,0.00,,,0.00,,2013-02-03 20:01:00,
2013-02-03 14:12:00,14.0,1.0,-100.00,WNW,285,1.0,7.0,56,0.00,,,0.00,,2013-02-03 20:12:00,
2013-02-03 14:21:00,14.0,1.0,-100.00,WSW,245,2.0,6.0,57,0.00,,,0.00,,2013-02-03 20:21:00,
2013-02-03 14:32:00,15.0,3.0,-100.00,South,170,1.0,6.0,58,0.00,,,0.00,,2013-02-03 20:32:00,
2013-02-03 14:42:00,14.0,1.0,-100.00,WSW,255,2.0,7.0,58,0.00,,,0.00,,2013-02-03 20:42:00,
2013-02-03 14:52:00,13.0,1.0,-100.00,West,265,2.0,4.0,60,0.00,,,0.00,,2013-02-03 20:52:00,
2013-02-03 15:03:00,14.0,3.0,-100.00,SW,225,1.0,4.0,61,0.00,,,0.00,,2013-02-03 21:03:00,
2013-02-03 15:11:00,14.0,3.0,-100.00,WSW,245,2.0,4.0,61,0.00,,,0.00,,2013-02-03 21:11:00,
2013-02-03 15:21:00,14.0,3.0,-100.00,SSW,195,2.0,3.0,61,0.00,,,0.00,,2013-02-03 21:21:00,
2013-02-03 15:32:00,14.0,3.0,-100.00,SSW,210,2.0,4.0,61,0.00,,,0.00,,2013-02-03 21:32:00,
2013-02-03 15:42:00,13.0,3.0,-100.00,SW,215,2.0,6.0,63,0.00,,,0.00,,2013-02-03 21:42:00,
2013-02-03 15:51:00,13.0,3.0,-100.00,SSW,210,2.0,4.0,63,0.00,,,0.00,,2013-02-03 21:51:00,
2013-02-03 16:01:00,13.0,3.0,-100.00,WNW,285,0.0,4.0,65,0.00,,,0.00,,2013-02-03 22:01:00,
2013-02-03 16:11:00,13.0,3.0,-100.00,WNW,295,1.0,2.0,65,0.00,,,0.00,,2013-02-03 22:11:00,
2013-02-03 16:21:00,13.0,3.0,-100.00,WSW,245,2.0,2.0,65,0.00,,,0.00,,2013-02-03 22:21:00,
2013-02-03 16:32:00,13.0,3.0,-100.00,SSE,165,0.0,2.0,65,0.00,,,0.00,,2013-02-03 22:32:00,
2013-02-03 16:41:00,13.0,3.0,-100.00,NNE,15,0.0,3.0,66,0.00,,,0.00,,2013-02-03 22:41:00,
2013-02-03 16:51:00,13.0,3.0,-100.00,NW,325,0.0,2.0,67,0.00,,,0.00,,2013-02-03 22:51:00,
2013-02-03 17:01:00,12.0,3.0,-100.00,West,275,0.0,2.0,67,0.00,,,0.00,,2013-02-03 23:01:00,
2013-02-03 17:12:00,12.0,3.0,-100.00,WSW,255,1.0,2.0,67,0.00,,,0.00,,2013-02-03 23:12:00,
2013-02-03 17:22:00,12.0,3.0,-100.00,WSW,245,1.0,3.0,69,0.00,,,0.00,,2013-02-03 23:22:00,
2013-02-03 17:32:00,12.0,3.0,-100.00,WSW,245,1.0,3.0,69,0.00,,,0.00,,2013-02-03 23:32:00,
2013-02-03 17:41:00,12.0,3.0,-100.00,WSW,245,1.0,3.0,69,0.00,,,0.00,,2013-02-03 23:41:00,
2013-02-03 17:52:00,12.0,3.0,-100.00,WSW,245,1.0,3.0,69,0.00,,,0.00,,2013-02-03 23:52:00,
2013-02-03 18:01:00,12.0,3.0,-100.00,WSW,245,1.0,3.0,69,0.00,,,0.00,,2013-02-04 00:01:00,